Lid_Strength_Index
8 11 14 12 11 11 11 13 13 13 10 12 13 13 10 9 10 10 10 10 10 9 6 6 6 5 4 3 3 4 4 3 3 4 4 4 3 2 3 3 2 2 2 3
11 13 10 9 10 11 11 13 14 11 10 11 11 12 10 9 9 9 9 9 9 9 7 6 7 7 5 4 2 3 3 3 3 3 3 3 3 3 3 2 3 3 2 3
12 11 8 10 11 12 12 13 13 13 11 11 12 13 12 9 9 8 8 7 7 8 7 7 7 7 7 6 4 3 2 3 3 3 3 4 4 4 4 4 3 3 3 3
11 8 10 11 12 11 15 10 11 12 14 17 13 18 14 12 11 10 9 8 7 6 6 6 7 7 7 6 6 3 2 2 3 3 3 3 3 4 3 3 3 2 3 3
12 11 11 12 12 10 13 9 11 12 14 16 16 17 16 13 13 11 9 9 8 7 6 6 7 6 5 5 5 4 3 2 2 3 3 3 3 3 3 3 4 3 2 2
11 8 9 10 9 9 9 11 12 12 14 18 15 16 18 15 12 11 11 10 9 9 8 7 6 6 6 8 8 7 6 6 4 3 3 3 3 3 3 3 4 3 3 2
12 11 10 9 11 9 10 13 19 19 19 20 16 16 15 14 12 12 11 10 9 9 8 8 8 7 8 9 8 8 8 8 7 7 7 5 4 3 2 2 2 3 3 3
16 17 12 10 11 13 12 13 18 22 21 20 16 18 16 12 11 11 10 11 9 10 10 9 9 9 9 9 9 9 8 8 8 8 8 8 8 7 6 4 1 1 1 1
15 15 11 10 9 9 13 15 11 16 21 20 19 17 14 13 13 11 11 10 10 10 10 10 9 9 9 9 9 9 9 8 8 8 8 8 8 8 8 7 6 4 3 2
12 16 12 10 9 9 11 10 16 15 22 23 20 19 18 16 13 12 12 11 10 10 10 10 9 9 9 9 9 8 8 8 8 7 7 7 7 7 7 7 7 6 6 5
11 13 14 11 13 13 12 14 13 13 16 19 22 19 15 13 12 11 12 11 10 10 10 10 11 10 9 10 9 9 8 8 8 7 7 8 8 7 7 7 7 6 6 5
10 12 16 14 12 11 10 12 12 17 18 16 17 17 13 13 12 12 11 10 10 9 9 11 11 10 10 10 9 9 8 8 7 7 8 8 8 7 7 7 7 6 6 6
10 14 18 17 13 12 13 12 11 11 14 16 18 17 10 12 13 12 11 10 9 9 11 11 11 10 10 9 9 9 8 8 7 8 8 8 8 8 7 7 7 7 7 7
8 13 14 17 15 13 14 13 12 13 16 15 15 14 12 12 12 11 11 9 9 9 11 11 11 10 10 9 9 9 8 8 7 8 9 9 9 8 8 7 7 7 7 8
10 15 13 12 14 12 13 13 13 14 13 15 13 13 11 10 10 11 11 10 9 10 11 10 11 10 10 10 10 9 9 8 7 8 9 9 8 8 8 8 8 8 9 8
10 15 13 15 13 13 14 12 12 12 12 12 12 12 8 7 8 10 10 10 10 9 8 9 9 10 10 10 9 8 8 8 8 9 10 9 9 10 9 9 9 9 9 9
12 13 15 17 13 15 17 14 13 12 11 11 14 11 8 8 10 9 10 10 9 8 8 8 9 9 9 10 9 9 9 9 9 10 10 10 10 10 10 10 10 10 10 10
12 13 14 16 15 21 13 10 10 11 10 10 10 9 8 8 6 9 9 8 8 8 8 8 9 10 10 10 9 9 9 10 10 10 10 11 11 11 11 11 11 11 11 11
9 12 15 17 18 15 14 13 12 12 12 9 9 9 8 7 10 9 7 7 8 8 8 8 9 9 10 10 9 9 10 11 11 11 11 11 11 12 12 12 12 11 12 11
10 10 14 15 19 20 13 10 11 10 15 8 8 8 8 8 11 9 7 8 8 8 8 8 9 10 11 10 10 10 11 12 11 10 11 11 11 12 12 11 11 12 12 11
14 14 16 16 17 17 13 13 9 16 13 10 8 8 8 9 8 8 9 10 10 10 11 11 11 11 11 11 11 11 11 11 10 11 11 11 11 11 11 11 11 11 11 11
15 16 16 15 17 18 12 12 12 11 12 13 12 12 12 12 12 12 11 12 12 13 12 13 13 13 12 12 11 12 12 11 11 11 12 12 12 11 10 11 11 11 13 12
15 13 14 13 14 11 12 13 11 11 11 12 12 12 12 12 13 13 14 14 14 14 14 14 14 14 13 12 12 13 12 12 12 12 12 12 11 11 11 12 11 11 12 13
13 12 13 13 12 12 12 14 14 13 14 14 15 15 14 15 15 15 15 15 15 15 15 15 15 15 15 14 14 14 14 13 14 14 14 12 12 12 11 11 11 12 12 12
12 11 13 13 13 15 17 15 15 16 15 15 16 16 17 16 17 17 16 16 16 16 16 17 17 17 17 17 17 17 16 17 17 17 16 16 15 14 13 12 12 11 11 11
16 14 13 12 15 14 17 16 16 17 18 18 17 18 18 18 19 19 19 19 19 19 19 19 19 20 20 20 20 20 19 19 20 19 19 18 17 17 16 15 15 11 11 10